Location: The Saddle
(36.8333°N, 80.3417°W)
Time: 12:45:13
(UTC-05:00)

A-11 Canister half - Pass Details

Date: 15 December 2023
Orbit: 1512 x 1687 km, 47.2° (Epoch: 22 February)

Event Time Altitude Azimuth Distance (km) Brightness Sun altitude
Rises 20:30:36 0° 220° (SW) 4,642 12.0 -40.0°
Reaches altitude 10° 20:33:38 10° 217° (SW) 3,669 11.3 -40.6°
Enters shadow 20:39:00 39° 202° (SSW) 2,148 9.7 -41.7°
Maximum altitude 20:42:43 64° 139° (SE) 1,684 - -42.4°
Drops below altitude 10° 20:52:05 10° 61° (ENE) 3,784 - -44.3°
Sets 20:55:15 0° 58° (ENE) 4,794 - -44.9°
